Other Public Products
Issued by NWS Charleston, SC

Current Version | Previous Version | Text Only | Print | Product List | Glossary Off
Versions: 1 2 3 4 5 6 7 8 9 10 11 12 13 14 15 16 17 18 19 20 21 22 23 24 25 26 27 28 29 30 31 32 33 34 35 36 37 38 39 40 41 42 43 44 45 46 47 48 49 50

946
FPUS82 KCHS 241212
OPUCHS

TEST...KCHS/KSAV Gateway Observations...TEST
National Weather Service Charleston SC
800 AM EDT TUE APR 24 2018

NOTE: "fair" indicates few or no clouds below 12,000 feet with no
significant weather and/or obstructions to visibility.

SCZ050-WAZ558-NCZ071-TXZ119-213-PAZ071-DCZ001-FLZ074-172-MI076-
NYZ176-178-MAZ016-IL014-TNZ027-NJZ106-GAZ044-MD014-241300-

...Gateway Observations for Charleston International...

CITY           SKY/WX    TMP DP  RH WIND       PRES   REMARKS
Chas Airport   FAIR      68  67  96 SW7       29.88S
6HR MIN TEMP:  66; 6HR MAX TEMP:  69; 6HR PCP: TRACE;

Seattle        CLEAR     52  35  52 N13       30.20S
6HR MIN TEMP:  49; 6HR MAX TEMP:  61;

Charlotte      CLOUDY    60  59  96 E9        29.92S FOG
6HR MIN TEMP:  57; 6HR MAX TEMP:  60; 6HR PCP:  0.03;

Dallas DFW     PTCLDY    58  52  80 NW3       30.07R
6HR MIN TEMP:  53; 6HR MAX TEMP:  63;

Dallas Love    CLEAR     58  53  84 CALM      30.08R
6HR MIN TEMP:  56; 6HR MAX TEMP:  62;

Philladelphia  PTSUNNY   51  40  65 E9        30.37F
6HR MIN TEMP:  41; 6HR MAX TEMP:  51;

Wash National  CLOUDY    56  42  59 E9        30.29F
6HR MIN TEMP:  55; 6HR MAX TEMP:  56;

Baltimore      FAIR      53  42  66 E9        30.30F
6HR MIN TEMP:  50; 6HR MAX TEMP:  53;

Miami          FAIR      75  74  96 SW5       30.00R
6HR MIN TEMP:  73; 6HR MAX TEMP:  75;

Detroit        LGT RAIN  53  46  77 E5        30.15R
6HR MIN TEMP:  52; 6HR MAX TEMP:  56; 6HR PCP:  0.01;

Newark         PTSUNNY   51  44  77 N3        30.41R
6HR MIN TEMP:  47; 6HR MAX TEMP:  51;

Laguardia      FAIR      48  43  82 NE6       30.42R
6HR MIN TEMP:  46; 6HR MAX TEMP:  50;

J F K          PTSUNNY   48  46  93 E5        30.43R
6HR MIN TEMP:  41; 6HR MAX TEMP:  48;

Boston Logan   FAIR      48  36  63 SW10      30.41S
6HR MIN TEMP:  42; 6HR MAX TEMP:  48;

Ft. Lauderdale FAIR      76  75  97 VRB7      29.98R
6HR MIN TEMP:  74; 6HR MAX TEMP:  76;

Chicago O`Hare LGT RAIN  49  37  63 N6        30.06R
6HR MIN TEMP:  48; 6HR MAX TEMP:  50; 6HR PCP: TRACE;

Chicago Midway CLOUDY    51  40  65 NE6       30.07R
6HR MIN TEMP:  50; 6HR MAX TEMP:  53; 6HR PCP: TRACE;

Houston Bush   FAIR      56  55  97 CALM      30.06R
6HR MIN TEMP:  54; 6HR MAX TEMP:  61;

Houston Hobby  FAIR      58  57  97 CALM      30.05R
6HR MIN TEMP:  57; 6HR MAX TEMP:  64;

Nashville      CLOUDY    58  55  90 NW3       29.90R
6HR MIN TEMP:  57; 6HR MAX TEMP:  58;

Atlanta        CLOUDY    59  59 100 W7        29.87R FOG
6HR MIN TEMP:  59; 6HR MAX TEMP:  61; 6HR PCP:  0.01;


$$

GAZ044-118-TXZ119-213-NCZ071-DCZ001-MDZ014-506-PAZ021-071-NJZ106-
NYZ176-178-MAZ106-OHZ011-021-055-MIZ076-KYZ091-ILZ014-INZ047-
MNZ060-ONZ431-241300-

...Gateway Observations for Savannah International...

CITY           SKY/WX    TMP DP  RH WIND       PRES   REMARKS
Savannah Arpt  PTSUNNY   64  62  93 SW9       29.90R
6HR MIN TEMP:  64; 6HR MAX TEMP:  67;

Atlanta        CLOUDY    59  59 100 W7        29.87R FOG
6HR MIN TEMP:  59; 6HR MAX TEMP:  61; 6HR PCP:  0.01;

Charlotte      CLOUDY    60  59  96 E9        29.92S FOG
6HR MIN TEMP:  57; 6HR MAX TEMP:  60; 6HR PCP:  0.03;

Dallas DFW     PTCLDY    58  52  80 NW3       30.07R
6HR MIN TEMP:  53; 6HR MAX TEMP:  63;

Houston Bush   FAIR      56  55  97 CALM      30.06R
6HR MIN TEMP:  54; 6HR MAX TEMP:  61;

Wash National  CLOUDY    56  42  59 E9        30.29F
6HR MIN TEMP:  55; 6HR MAX TEMP:  56;

Wash Dulles    CLOUDY    55  43  63 E12       30.27F
6HR MIN TEMP:  53; 6HR MAX TEMP:  55;

Baltimore      FAIR      53  42  66 E9        30.30F
6HR MIN TEMP:  50; 6HR MAX TEMP:  53;

Philadelphia   PTSUNNY   51  40  65 E9        30.37F
6HR MIN TEMP:  41; 6HR MAX TEMP:  51;

Newark         PTSUNNY   51  44  77 N3        30.41R
6HR MIN TEMP:  47; 6HR MAX TEMP:  51;

Laguardia      FAIR      48  43  82 NE6       30.42R
6HR MIN TEMP:  46; 6HR MAX TEMP:  50;

J F K          PTSUNNY   48  46  93 E5        30.43R
6HR MIN TEMP:  41; 6HR MAX TEMP:  48;

Boston         FAIR      48  36  63 SW10      30.41S
6HR MIN TEMP:  42; 6HR MAX TEMP:  48;

Pittsburg      LGT RAIN  51  43  74 E7        30.16S
6HR MIN TEMP:  51; 6HR MAX TEMP:  55; 6HR PCP: TRACE;

Akron          LGT RAIN  54  44  69 SE10      30.13S
6HR MIN TEMP:  54; 6HR MAX TEMP:  57; 6HR PCP: TRACE;

Cleveland      CLOUDY    57  46  66 SE15      30.15S
6HR MIN TEMP:  56; 6HR MAX TEMP:  58; 6HR PCP: TRACE;

Cincinnati     LGT RAIN  52  51  97 E8        29.95S
6HR MIN TEMP:  52; 6HR MAX TEMP:  53; 6HR PCP:  0.09;

Columbus       CLOUDY    51  51 100 E10G16    30.04S
Detroit        LGT RAIN  53  46  77 E5        30.15R
6HR MIN TEMP:  52; 6HR MAX TEMP:  56; 6HR PCP:  0.01;

Chicago O`Hare LGT RAIN  49  37  63 N6        30.06R
6HR MIN TEMP:  48; 6HR MAX TEMP:  50; 6HR PCP: TRACE;

Minneapolis    FAIR      45  40  82 SE5       30.12F
6HR MIN TEMP:  43; 6HR MAX TEMP:  53;

Indianapolis   LGT RAIN  51  50  96 E9        29.98S FOG
6HR MIN TEMP:  51; 6HR MAX TEMP:  53; 6HR PCP:  0.02;

Toronto Canada PTSUNNY   48  34  57 SW3       30.19R

$$




USA.gov is the U.S. government's official web portal to all federal, state and local government web resources and services.